Starlink 5071

operational
NORAD ID: 55402 Int'l Des: 2023-014 Owner: SPXS Country: US Constellation: starlink
LEOCIRCULAR

Starlink 5071について

説明を読み込み中...

リアルタイム位置

3D地球を読み込み中...

次回通過

高度履歴

Altitude vs Time

uPlot chart will show altitude changes over time

軌道要素

1 55402U 23014M 25303.30612390 .00000512 00000-0 50709-4 0 9996
2 55402 70.0013 33.2665 0002902 267.3663 92.7164 14.98332319152527
Epoch: Oct 30, 2025 • Age: 5 hours

現在のステータス

高度 582.6 km
速度 7.57 km/s
衛星直下点 56.37°N, 49.51°W
打ち上げ日 Jan 31, 2023
運用期間 2.7 years
タイプ internet

技術仕様

分類 Payload
質量 305.00 kg
乾燥質量 290.00 kg
総質量 305.00 kg
長さ 0.20 m
直径 2.80 m
スパン 9.00 m
形状 Box + pan
製造者 SPXS
バスタイプ Starlink
フェーズステータス In Orbit
所有者/国 SPXS/US

大規模コンステレーション

Loading constellations...